Tracking 25620 objects as of 18-May-2022
HD Live streaming from Space Station
objects crossing your sky now

STARLINK-1456

Track STARLINK-1456 now!
10-day predictions
STARLINK-1456 is classified as:


NORAD ID: 45673
Int'l Code: 2020-035S
Perigee: 553.1 km
Apogee: 555.5 km
Inclination: 53.1 °
Period: 95.6 minutes
Semi major axis: 6925 km
RCS: Unknown
Launch date: June 4, 2020
Source: United States (US)
Launch site: AIR FORCE EASTERN TEST RANGE (AFETR)
aabbcc
Your satellite tracking list
Your tracking list is empty




NASA's NSSDC Master Catalog

Two Line Element Set (TLE):
1 45673U 20035S   22138.43978301 -.00000549  00000-0 -17923-4 0  9992
2 45673  53.0535 192.1678 0001744  51.8508 308.2638 15.06407114109048
Source of the keplerian elements: AFSPC